This is the latest recevied weather packets stored in our database for station/object PU2XNA. If no packets are shown the sender has not sent any weather packets the latest 10 day(s).
| Time | Temp. | Humidity | Pressure | Rain* | Wind** | Luminosity | Snow |
|---|---|---|---|---|---|---|---|
| 1788514203 | 16.11° C | 79% | 1011.8 hPa | - | - | - | - |
| 1788513303 | 16.11° C | 78% | 1011.9 hPa | - | - | - | - |
| 1788512402 | 16.67° C | 77% | 1011.9 hPa | - | - | - | - |
| 1788511503 | 17.22° C | 76% | 1011.8 hPa | - | - | - | - |
| 1788510603 | 16.67° C | 77% | 1011.6 hPa | - | - | - | - |
| 1788509703 | 17.22° C | 76% | 1011.4 hPa | - | - | - | - |
| 1788508803 | 17.22° C | 75% | 1011.3 hPa | - | - | - | - |
| 1788507903 | 17.78° C | 74% | 1011.2 hPa | - | - | - | - |
| 1788507002 | 17.78° C | 72% | 1011 hPa | - | - | - | - |
| 1788506102 | 17.78° C | 73% | 1011 hPa | - | - | - | - |
| 1788505202 | 18.33° C | 73% | 1011 hPa | - | - | - | - |
| 1788504302 | 18.33° C | 72% | 1011 hPa | - | - | - | - |
| 1788503402 | 18.33° C | 71% | 1010.9 hPa | - | - | - | - |
| 1788502502 | 18.33° C | 73% | 1011 hPa | - | - | - | - |
| 1788501602 | 17.78° C | 73% | 1011.1 hPa | - | - | - | - |
| 1788500703 | 17.22° C | 75% | 1011.1 hPa | - | - | - | - |
| 1788499804 | 18.33° C | 72% | 1011.1 hPa | - | - | - | - |
| 1788498904 | 19.44° C | 72% | 1011.1 hPa | - | - | - | - |
| 1788498003 | 20° C | 72% | 1011.2 hPa | - | - | - | - |
| 1788497103 | 20° C | 72% | 1011.3 hPa | - | - | - | - |
| 1788496202 | 20.56° C | 72% | 1011.3 hPa | - | - | - | - |
| 1788495303 | 21.11° C | 72% | 1011.5 hPa | - | - | - | - |
| 1788494403 | 20.56° C | 72% | 1011.7 hPa | - | - | - | - |
| 1788493503 | 20.56° C | 72% | 1011.8 hPa | - | - | - | - |
| 1788492602 | 20.56° C | 72% | 1011.9 hPa | - | - | - | - |
* Rain since midnight (hover to see other rain measurements)
** Current wind speed in m/s (hover to see current wind gust speed)